ITY1360 LIPQ-LIRF

Flight info

Callsign ITY1360
Flight time 0h 47m
Altitude 35000
Route ROSKA DCT BELOV DCT MOGPU DCT NIKMA DCT RITEB
Aircraft A320/M-SDE3FGHIRWY/LB1

Departure

Time 2026-04-14 07:30
Airport Trieste Airport (LIPQ)

Arrival

Time 2026-04-14 08:18
Airport Rome–Fiumicino Leonardo da Vinci International Airport (LIRF)
Time Latitude Longitude Altitude Speed Heading
2026-04-14 07:13 45.82197 13.48481 47 ft 0 kts 171°
2026-04-14 07:22 45.82214 13.48477 47 ft 4 kts 171°
2026-04-14 07:22 45.82241 13.48470 45 ft 4 kts 166°
2026-04-14 07:22 45.82265 13.48458 44 ft 4 kts 139°
2026-04-14 07:22 45.82274 13.48439 45 ft 0 kts 81°
2026-04-14 07:26 45.82276 13.48463 47 ft 8 kts 81°
2026-04-14 07:26 45.82300 13.48556 45 ft 10 kts 45°
2026-04-14 07:27 45.82357 13.48572 47 ft 7 kts 359°
2026-04-14 07:27 45.82402 13.48570 47 ft 6 kts 358°
2026-04-14 07:27 45.82436 13.48570 47 ft 4 kts
2026-04-14 07:27 45.82459 13.48570 47 ft 3 kts
2026-04-14 07:28 45.82474 13.48571 47 ft 2 kts
2026-04-14 07:28 45.82481 13.48571 47 ft 1 kts
2026-04-14 07:28 45.82497 13.48572 47 ft 7 kts
2026-04-14 07:28 45.82584 13.48575 47 ft 18 kts
2026-04-14 07:29 45.82725 13.48576 47 ft 20 kts 359°
2026-04-14 07:29 45.82777 13.48534 46 ft 6 kts 267°
2026-04-14 07:29 45.82777 13.48530 46 ft 0 kts 270°
2026-04-14 07:29 45.82777 13.48513 46 ft 9 kts 269°
2026-04-14 07:30 45.82778 13.48122 46 ft 76 kts 270°
2026-04-14 07:30 45.82783 13.47053 48 ft 136 kts 270°
2026-04-14 07:30 45.82801 13.45548 392 ft 152 kts 272°
2026-04-14 07:30 45.82829 13.44024 956 ft 156 kts 272°
2026-04-14 07:31 45.82841 13.42460 1534 ft 161 kts 272°
2026-04-14 07:31 45.82848 13.40800 1971 ft 177 kts 273°
2026-04-14 07:31 45.82859 13.38950 2340 ft 194 kts 273°
2026-04-14 07:31 45.82748 13.36889 2622 ft 220 kts 252°
2026-04-14 07:32 45.81897 13.35029 3153 ft 230 kts 216°
2026-04-14 07:32 45.80553 13.33896 4067 ft 220 kts 200°
2026-04-14 07:32 45.79127 13.33088 4927 ft 221 kts 196°
2026-04-14 07:32 45.77696 13.32354 5903 ft 215 kts 195°
2026-04-14 07:33 45.76320 13.31635 6803 ft 213 kts 196°
2026-04-14 07:33 45.74936 13.30873 7628 ft 215 kts 198°
2026-04-14 07:33 45.73542 13.30071 8433 ft 217 kts 198°
2026-04-14 07:34 45.69609 13.26642 10671 ft 232 kts 224°
2026-04-14 07:34 45.68525 13.24910 11400 ft 236 kts 224°
2026-04-14 07:34 45.67421 13.23147 12155 ft 240 kts 224°
2026-04-14 07:35 45.66302 13.21353 12893 ft 243 kts 225°
2026-04-14 07:35 45.65182 13.19560 13587 ft 247 kts 225°
2026-04-14 07:35 45.64005 13.17754 14195 ft 249 kts 218°
2026-04-14 07:35 45.62609 13.16296 14829 ft 250 kts 211°
2026-04-14 07:36 45.61165 13.14893 15484 ft 252 kts 211°
2026-04-14 07:36 45.59704 13.13476 16118 ft 256 kts 210°
2026-04-14 07:36 45.58222 13.12046 16699 ft 259 kts 210°
2026-04-14 07:36 45.56723 13.10597 17285 ft 262 kts 210°
2026-04-14 07:37 45.55227 13.09150 17917 ft 264 kts 211°
2026-04-14 07:37 45.53696 13.07667 18502 ft 267 kts 211°
2026-04-14 07:37 45.52153 13.06172 19128 ft 270 kts 210°
2026-04-14 07:37 45.50590 13.04660 19759 ft 273 kts 210°
2026-04-14 07:38 45.49014 13.03138 20420 ft 275 kts 211°
2026-04-14 07:38 45.47424 13.01602 21066 ft 277 kts 212°
2026-04-14 07:38 45.45824 13.00051 21712 ft 280 kts 210°
2026-04-14 07:38 45.44206 12.98488 22350 ft 283 kts 212°
2026-04-14 07:39 45.42570 12.96910 22958 ft 285 kts 211°
2026-04-14 07:39 45.40950 12.95347 23517 ft 286 kts 211°
2026-04-14 07:39 45.39294 12.93753 24025 ft 288 kts 211°
2026-04-14 07:39 45.37629 12.92152 24525 ft 290 kts 212°
2026-04-14 07:40 45.35953 12.90542 25023 ft 292 kts 212°
2026-04-14 07:40 45.34261 12.88918 25476 ft 295 kts 212°
2026-04-14 07:40 45.32555 12.87295 25886 ft 296 kts 209°
2026-04-14 07:40 45.30681 12.86109 26241 ft 296 kts 193°
2026-04-14 07:41 45.28622 12.85587 26366 ft 306 kts 185°
2026-04-14 07:41 45.26496 12.85183 26492 ft 318 kts 186°
2026-04-14 07:41 45.24258 12.84761 26625 ft 331 kts 186°
2026-04-14 07:41 45.21938 12.84322 26752 ft 343 kts 186°
2026-04-14 07:42 45.19535 12.83862 26880 ft 354 kts 186°
2026-04-14 07:42 45.17047 12.83383 27012 ft 368 kts 187°
2026-04-14 07:42 45.14465 12.82886 27144 ft 381 kts 186°
2026-04-14 07:42 45.11805 12.82372 27277 ft 391 kts 186°
2026-04-14 07:43 45.09075 12.81843 27405 ft 401 kts 186°
2026-04-14 07:43 45.06311 12.81309 27536 ft 410 kts 187°
2026-04-14 07:43 45.03461 12.80759 27715 ft 417 kts 186°
2026-04-14 07:43 45.00576 12.80201 28005 ft 420 kts 186°
2026-04-14 07:44 44.97678 12.79642 28423 ft 421 kts 187°
2026-04-14 07:44 44.94762 12.79077 28723 ft 424 kts 186°
2026-04-14 07:44 44.91830 12.78506 29049 ft 426 kts 187°
2026-04-14 07:44 44.88880 12.77935 29350 ft 428 kts 186°
2026-04-14 07:45 44.85920 12.77367 29697 ft 430 kts 186°
2026-04-14 07:45 44.82993 12.76810 30053 ft 431 kts 187°
2026-04-14 07:45 44.80018 12.76243 30253 ft 433 kts 186°
2026-04-14 07:45 44.77017 12.75668 30481 ft 436 kts 187°
2026-04-14 07:46 44.74010 12.75090 30781 ft 436 kts 187°
2026-04-14 07:46 44.71001 12.74512 31042 ft 436 kts 187°
2026-04-14 07:46 44.67999 12.73938 31348 ft 436 kts 187°
2026-04-14 07:46 44.64994 12.73368 31641 ft 435 kts 188°
2026-04-14 07:47 44.61990 12.72802 31943 ft 435 kts 188°
2026-04-14 07:47 44.59033 12.72248 32259 ft 435 kts 188°
2026-04-14 07:47 44.56038 12.71685 32600 ft 433 kts 188°
2026-04-14 07:47 44.53082 12.70921 32931 ft 432 kts 195°
2026-04-14 07:48 44.50178 12.69842 33275 ft 431 kts 195°
2026-04-14 07:48 44.47286 12.68769 33629 ft 429 kts 195°
2026-04-14 07:48 44.44414 12.67703 33992 ft 427 kts 195°
2026-04-14 07:48 44.41546 12.66639 34280 ft 426 kts 195°
2026-04-14 07:49 44.38681 12.65578 34530 ft 426 kts 195°
2026-04-14 07:49 44.35852 12.64536 34758 ft 427 kts 195°
2026-04-14 07:49 44.32979 12.63479 34867 ft 426 kts 195°
2026-04-14 07:50 44.27279 12.61388 34903 ft 421 kts 195°
2026-04-14 07:50 44.21620 12.59312 34893 ft 420 kts 195°
2026-04-14 07:51 44.15960 12.57247 34893 ft 420 kts 195°
2026-04-14 07:51 44.10344 12.55207 34893 ft 420 kts 195°
2026-04-14 07:52 44.04694 12.53139 34893 ft 420 kts 195°
2026-04-14 07:52 43.99041 12.51072 34894 ft 420 kts 195°
2026-04-14 07:53 43.93385 12.49023 34890 ft 420 kts 195°
2026-04-14 07:53 43.87733 12.46974 34892 ft 420 kts 195°
2026-04-14 07:54 43.82106 12.44942 34900 ft 421 kts 195°
2026-04-14 07:54 43.76448 12.42896 34894 ft 420 kts 195°
2026-04-14 07:55 43.70797 12.40864 34883 ft 420 kts 195°
2026-04-14 07:55 43.65147 12.38842 34896 ft 420 kts 195°
2026-04-14 07:56 43.59532 12.36828 34892 ft 420 kts 195°
2026-04-14 07:56 43.53881 12.34803 34882 ft 419 kts 195°
2026-04-14 07:57 43.48218 12.32775 34862 ft 422 kts 195°
2026-04-14 07:57 43.45374 12.31756 34661 ft 422 kts 195°
2026-04-14 07:57 43.42505 12.30731 33477 ft 432 kts 195°
2026-04-14 07:57 43.39573 12.29686 32368 ft 436 kts 195°
2026-04-14 07:58 43.36675 12.28657 31557 ft 435 kts 195°
2026-04-14 07:58 43.33760 12.27623 30845 ft 431 kts 194°
2026-04-14 07:58 43.30871 12.26597 30192 ft 427 kts 194°
2026-04-14 07:58 43.28012 12.25579 29491 ft 423 kts 194°
2026-04-14 07:59 43.25173 12.24570 28756 ft 419 kts 194°
2026-04-14 07:59 43.22359 12.23574 28047 ft 415 kts 194°
2026-04-14 07:59 43.19586 12.22594 27522 ft 408 kts 194°
2026-04-14 07:59 43.16854 12.21627 26995 ft 403 kts 194°
2026-04-14 08:00 43.14202 12.20690 26508 ft 397 kts 194°
2026-04-14 08:00 43.11547 12.19756 26026 ft 391 kts 194°
2026-04-14 08:00 43.08932 12.18836 25563 ft 386 kts 194°
2026-04-14 08:00 43.06319 12.18090 25089 ft 381 kts 187°
2026-04-14 08:01 43.03681 12.17898 24611 ft 378 kts 182°
2026-04-14 08:01 43.01063 12.17787 24142 ft 375 kts 182°
2026-04-14 08:01 42.98465 12.17626 23379 ft 374 kts 184°
2026-04-14 08:01 42.95879 12.17333 22302 ft 372 kts 186°
2026-04-14 08:02 42.93354 12.16964 21278 ft 369 kts 187°
2026-04-14 08:02 42.90810 12.16558 20286 ft 367 kts 187°
2026-04-14 08:02 42.88282 12.16150 19329 ft 364 kts 187°
2026-04-14 08:02 42.85776 12.15757 18562 ft 358 kts 187°
2026-04-14 08:03 42.83348 12.15395 18088 ft 344 kts 187°
2026-04-14 08:03 42.81019 12.15057 17612 ft 330 kts 187°
2026-04-14 08:03 42.78786 12.14739 17201 ft 316 kts 187°
2026-04-14 08:03 42.76637 12.14438 16805 ft 309 kts 187°
2026-04-14 08:04 42.74503 12.14140 16406 ft 308 kts 187°
2026-04-14 08:04 42.72407 12.13845 16014 ft 306 kts 187°
2026-04-14 08:04 42.70294 12.13547 15624 ft 305 kts 187°
2026-04-14 08:04 42.68179 12.13246 15233 ft 306 kts 187°
2026-04-14 08:05 42.66066 12.12947 14844 ft 305 kts 187°
2026-04-14 08:05 42.63957 12.12650 14448 ft 305 kts 187°
2026-04-14 08:05 42.61845 12.12353 14053 ft 305 kts 187°
2026-04-14 08:05 42.59737 12.12057 13649 ft 305 kts 187°
2026-04-14 08:06 42.57656 12.11763 13221 ft 304 kts 188°
2026-04-14 08:06 42.55560 12.11465 12812 ft 302 kts 187°
2026-04-14 08:06 42.53474 12.11171 12412 ft 300 kts 187°
2026-04-14 08:06 42.51407 12.10880 12013 ft 298 kts 187°
2026-04-14 08:07 42.49356 12.10589 11738 ft 292 kts 187°
2026-04-14 08:07 42.47384 12.10310 11663 ft 279 kts 187°
2026-04-14 08:07 42.45476 12.10043 11550 ft 275 kts 187°
2026-04-14 08:07 42.43563 12.09775 11426 ft 276 kts 186°
2026-04-14 08:08 42.41634 12.09505 11311 ft 279 kts 187°
2026-04-14 08:08 42.39749 12.09253 11181 ft 275 kts 184°
2026-04-14 08:08 42.37828 12.09527 10962 ft 282 kts 166°
2026-04-14 08:08 42.35943 12.10302 10532 ft 283 kts 164°
2026-04-14 08:09 42.34066 12.11105 10139 ft 283 kts 163°
2026-04-14 08:09 42.32193 12.11913 9749 ft 282 kts 163°
2026-04-14 08:09 42.30322 12.12719 9332 ft 282 kts 163°
2026-04-14 08:09 42.28461 12.13515 8939 ft 280 kts 163°
2026-04-14 08:10 42.26615 12.14300 8548 ft 277 kts 163°
2026-04-14 08:10 42.24812 12.15065 8184 ft 274 kts 163°
2026-04-14 08:10 42.23003 12.15831 7808 ft 271 kts 163°
2026-04-14 08:10 42.21213 12.16587 7441 ft 268 kts 163°
2026-04-14 08:11 42.19448 12.17335 7076 ft 265 kts 163°
2026-04-14 08:11 42.17699 12.18079 6761 ft 263 kts 163°
2026-04-14 08:11 42.15964 12.18805 6438 ft 258 kts 165°
2026-04-14 08:11 42.14199 12.18974 6123 ft 255 kts 188°
2026-04-14 08:12 42.12465 12.18476 5841 ft 256 kts 191°
2026-04-14 08:12 42.10751 12.17957 5495 ft 255 kts 191°
2026-04-14 08:12 42.09029 12.17434 5149 ft 253 kts 191°
2026-04-14 08:12 42.07312 12.16979 4804 ft 249 kts 182°
2026-04-14 08:13 42.05620 12.17274 4461 ft 245 kts 164°
2026-04-14 08:13 42.04002 12.17962 4098 ft 243 kts 162°
2026-04-14 08:13 42.02408 12.18659 3765 ft 239 kts 162°
2026-04-14 08:13 42.00835 12.19327 3343 ft 235 kts 162°
2026-04-14 08:14 41.99305 12.19971 3042 ft 231 kts 162°
2026-04-14 08:14 41.97785 12.20610 2730 ft 227 kts 162°
2026-04-14 08:14 41.96293 12.21238 2427 ft 223 kts 162°
2026-04-14 08:14 41.94874 12.21834 2142 ft 201 kts 162°
2026-04-14 08:15 41.93608 12.22366 1900 ft 181 kts 163°
2026-04-14 08:15 41.92479 12.22841 1669 ft 160 kts 163°
2026-04-14 08:15 41.91489 12.23257 1457 ft 141 kts 163°
2026-04-14 08:15 41.90582 12.23638 1266 ft 133 kts 163°
2026-04-14 08:16 41.89717 12.24001 1086 ft 131 kts 163°
2026-04-14 08:16 41.88846 12.24366 926 ft 132 kts 162°
2026-04-14 08:16 41.87982 12.24729 750 ft 129 kts 161°
2026-04-14 08:16 41.87137 12.25083 589 ft 128 kts 162°
2026-04-14 08:17 41.86273 12.25445 406 ft 131 kts 163°
2026-04-14 08:17 41.85418 12.25810 275 ft 128 kts 162°
2026-04-14 08:17 41.84568 12.26170 95 ft 129 kts 163°
2026-04-14 08:17 41.83755 12.26495 17 ft 108 kts 159°
2026-04-14 08:18 41.83214 12.26734 11 ft 58 kts 162°
2026-04-14 08:18 41.82935 12.26848 12 ft 34 kts 167°
2026-04-14 08:18 41.82710 12.26862 11 ft 32 kts 185°
2026-04-14 08:18 41.82493 12.26807 11 ft 31 kts 192°
2026-04-14 08:19 41.82282 12.26797 12 ft 30 kts 161°
2026-04-14 08:19 41.82084 12.26879 11 ft 30 kts 163°
2026-04-14 08:19 41.81884 12.26964 11 ft 31 kts 162°
2026-04-14 08:19 41.81679 12.27050 13 ft 32 kts 163°
2026-04-14 08:20 41.81464 12.27139 12 ft 32 kts 162°
2026-04-14 08:20 41.81256 12.27226 12 ft 31 kts 162°
2026-04-14 08:20 41.81058 12.27312 12 ft 29 kts 162°
2026-04-14 08:20 41.80864 12.27342 13 ft 28 kts 189°
2026-04-14 08:21 41.80682 12.27271 14 ft 27 kts 222°
2026-04-14 08:21 41.80601 12.27036 14 ft 29 kts 249°
2026-04-14 08:21 41.80531 12.26779 16 ft 30 kts 249°
2026-04-14 08:21 41.80465 12.26536 15 ft 31 kts 253°
2026-04-14 08:22 41.80395 12.26365 15 ft 17 kts 193°
2026-04-14 08:22 41.80274 12.26397 14 ft 19 kts 163°
2026-04-14 08:22 41.80146 12.26364 15 ft 20 kts 205°
2026-04-14 08:22 41.80012 12.26282 14 ft 22 kts 204°
2026-04-14 08:23 41.79867 12.26192 16 ft 24 kts 205°
2026-04-14 08:23 41.79770 12.26066 14 ft 20 kts 283°
2026-04-14 08:23 41.79823 12.25907 14 ft 13 kts 294°
2026-04-14 08:23 41.79798 12.25813 14 ft 8 kts 210°
2026-04-14 08:24 41.79765 12.25792 14 ft 5 kts 205°
2026-04-14 08:24 41.79735 12.25786 14 ft 4 kts 144°
2026-04-14 08:24 41.79715 12.25819 14 ft 4 kts 117°
2026-04-14 08:24 41.79709 12.25834 14 ft 1 kts 117°
2026-04-14 08:25 41.79708 12.25836 14 ft 0 kts 116°
2026-04-14 08:25 41.79705 12.25845 15 ft 0 kts 116°